Year,Month,Day,Hour,Minute,Value (Times are PST for temperature in C)
2006,05,21,00,00,10.90
2006,05,21,00,01,10.90
2006,05,21,00,02,10.90
2006,05,21,00,03,10.90
2006,05,21,00,04,10.90
2006,05,21,00,05,10.90
2006,05,21,00,06,10.90
2006,05,21,00,07,10.90
2006,05,21,00,08,10.90
2006,05,21,00,09,10.90
2006,05,21,00,10,10.90
2006,05,21,00,11,10.90
2006,05,21,00,12,10.90
2006,05,21,00,13,10.90
2006,05,21,00,14,10.90
2006,05,21,00,15,10.90
2006,05,21,00,16,10.90
2006,05,21,00,17,10.90
2006,05,21,00,18,10.90
2006,05,21,00,19,10.90
2006,05,21,00,20,10.80
2006,05,21,00,21,10.80
2006,05,21,00,22,10.80
2006,05,21,00,23,10.80
2006,05,21,00,24,10.80
2006,05,21,00,25,10.80
2006,05,21,00,26,10.80
2006,05,21,00,27,10.80
2006,05,21,00,28,10.80
2006,05,21,00,29,10.80
2006,05,21,00,30,10.70
2006,05,21,00,31,10.70
2006,05,21,00,32,10.70
2006,05,21,00,33,10.70
2006,05,21,00,34,10.70
2006,05,21,00,35,10.70
2006,05,21,00,36,10.60
2006,05,21,00,37,10.60
2006,05,21,00,38,10.60
2006,05,21,00,39,10.60
2006,05,21,00,40,10.60
2006,05,21,00,41,10.60
2006,05,21,00,42,10.60
2006,05,21,00,43,10.60
2006,05,21,00,44,10.60
2006,05,21,00,45,10.60
2006,05,21,00,46,10.60
2006,05,21,00,47,10.60
2006,05,21,00,48,10.60
2006,05,21,00,49,10.60
2006,05,21,00,50,10.60
2006,05,21,00,51,10.60
2006,05,21,00,52,10.50
2006,05,21,00,53,10.40
2006,05,21,00,54,10.40
2006,05,21,00,55,10.40
2006,05,21,00,56,10.40
2006,05,21,00,57,10.40
2006,05,21,00,58,10.40
2006,05,21,00,59,10.40
2006,05,21,01,00,10.40
2006,05,21,01,01,10.40
2006,05,21,01,02,10.40
2006,05,21,01,03,10.40
2006,05,21,01,04,10.40
2006,05,21,01,05,10.40
2006,05,21,01,06,10.40
2006,05,21,01,07,10.40
2006,05,21,01,08,10.40
2006,05,21,01,09,10.40
2006,05,21,01,10,10.40
2006,05,21,01,11,10.40
2006,05,21,01,12,10.40
2006,05,21,01,13,10.40
2006,05,21,01,14,10.40
2006,05,21,01,15,10.40
2006,05,21,01,16,10.40
2006,05,21,01,17,10.40
2006,05,21,01,18,10.40
2006,05,21,01,19,10.40
2006,05,21,01,20,10.40
2006,05,21,01,21,10.40
2006,05,21,01,22,10.40
2006,05,21,01,23,10.40
2006,05,21,01,24,10.40
2006,05,21,01,25,10.40
2006,05,21,01,26,10.40
2006,05,21,01,27,10.40
2006,05,21,01,28,10.40
2006,05,21,01,29,10.40
2006,05,21,01,30,10.40
2006,05,21,01,31,10.40
2006,05,21,01,32,10.40
2006,05,21,01,33,10.40
2006,05,21,01,34,10.40
2006,05,21,01,35,10.40
2006,05,21,01,36,10.40
2006,05,21,01,37,10.40
2006,05,21,01,38,10.40
2006,05,21,01,39,10.40
2006,05,21,01,40,10.40
2006,05,21,01,41,10.40
2006,05,21,01,42,10.30
2006,05,21,01,43,10.30
2006,05,21,01,44,10.30
2006,05,21,01,45,10.30
2006,05,21,01,46,10.30
2006,05,21,01,47,10.20
2006,05,21,01,48,10.20
2006,05,21,01,49,10.20
2006,05,21,01,50,10.20
2006,05,21,01,51,10.20
2006,05,21,01,52,10.10
2006,05,21,01,53,10.10
2006,05,21,01,54,10.10
2006,05,21,01,55,10.10
2006,05,21,01,56,10.10
2006,05,21,01,57,10.10
2006,05,21,01,58,9.90
2006,05,21,01,59,9.90
2006,05,21,02,00,9.90
2006,05,21,02,01,9.90
2006,05,21,02,02,9.90
2006,05,21,02,03,9.80
2006,05,21,02,04,9.80
2006,05,21,02,05,9.80
2006,05,21,02,06,9.70
2006,05,21,02,07,9.70
2006,05,21,02,08,9.70
2006,05,21,02,09,9.70
2006,05,21,02,10,9.70
2006,05,21,02,11,9.70
2006,05,21,02,12,9.60
2006,05,21,02,13,9.60
2006,05,21,02,14,9.60
2006,05,21,02,15,9.50
2006,05,21,02,16,9.50
2006,05,21,02,17,9.50
2006,05,21,02,18,9.40
2006,05,21,02,19,9.40
2006,05,21,02,20,9.40
2006,05,21,02,21,9.30
2006,05,21,02,22,9.30
2006,05,21,02,23,9.30
2006,05,21,02,24,9.20
2006,05,21,02,25,9.20
2006,05,21,02,26,9.20
2006,05,21,02,27,9.20
2006,05,21,02,28,9.10
2006,05,21,02,29,9.10
2006,05,21,02,30,9.10
2006,05,21,02,31,9.10
2006,05,21,02,32,9.10
2006,05,21,02,33,9.00
2006,05,21,02,34,9.00
2006,05,21,02,35,9.00
2006,05,21,02,36,9.00
2006,05,21,02,37,9.00
2006,05,21,02,38,9.00
2006,05,21,02,39,9.00
2006,05,21,02,40,9.00
2006,05,21,02,41,9.00
2006,05,21,02,42,9.00
2006,05,21,02,43,9.10
2006,05,21,02,44,9.10
2006,05,21,02,45,9.10
2006,05,21,02,46,9.10
2006,05,21,02,47,9.10
2006,05,21,02,48,9.20
2006,05,21,02,49,9.20
2006,05,21,02,50,9.20
2006,05,21,02,51,9.20
2006,05,21,02,52,9.20
2006,05,21,02,53,9.20
2006,05,21,02,54,9.20
2006,05,21,02,55,9.20
2006,05,21,02,56,9.20
2006,05,21,02,57,9.20
2006,05,21,02,58,9.20
2006,05,21,02,59,9.20
2006,05,21,03,00,9.20
2006,05,21,03,01,9.20
2006,05,21,03,02,9.20
2006,05,21,03,03,9.20
2006,05,21,03,04,9.30
2006,05,21,03,05,9.30
2006,05,21,03,06,9.30
2006,05,21,03,07,9.30
2006,05,21,03,08,9.30
2006,05,21,03,09,9.40
2006,05,21,03,10,9.40
2006,05,21,03,11,9.40
2006,05,21,03,12,9.40
2006,05,21,03,13,9.40
2006,05,21,03,14,9.50
2006,05,21,03,15,9.50
2006,05,21,03,16,9.50
2006,05,21,03,17,9.50
2006,05,21,03,18,9.60
2006,05,21,03,19,9.60
2006,05,21,03,20,9.60
2006,05,21,03,21,9.60
2006,05,21,03,22,9.70
2006,05,21,03,23,9.70
2006,05,21,03,24,9.70
2006,05,21,03,25,9.70
2006,05,21,03,26,9.70
2006,05,21,03,27,9.70
2006,05,21,03,28,9.70
2006,05,21,03,29,9.70
2006,05,21,03,30,9.80
2006,05,21,03,31,9.80
2006,05,21,03,32,9.80
2006,05,21,03,33,9.80
2006,05,21,03,34,9.80
2006,05,21,03,35,9.80
2006,05,21,03,36,9.90
2006,05,21,03,37,9.90
2006,05,21,03,38,9.90
2006,05,21,03,39,9.90
2006,05,21,03,40,9.90
2006,05,21,03,41,9.90
2006,05,21,03,42,9.90
2006,05,21,03,43,9.90
2006,05,21,03,44,9.90
2006,05,21,03,45,9.90
2006,05,21,03,46,9.90
2006,05,21,03,47,9.90
2006,05,21,03,48,9.90
2006,05,21,03,49,9.90
2006,05,21,03,50,9.90
2006,05,21,03,51,9.90
2006,05,21,03,52,9.90
2006,05,21,03,53,9.90
2006,05,21,03,54,9.90
2006,05,21,03,55,9.90
2006,05,21,03,56,9.90
2006,05,21,03,57,9.90
2006,05,21,03,58,9.90
2006,05,21,03,59,9.90
2006,05,21,04,00,10.10
2006,05,21,04,01,10.10
2006,05,21,04,02,10.10
2006,05,21,04,03,10.10
2006,05,21,04,04,10.10
2006,05,21,04,05,10.10
2006,05,21,04,06,10.20
2006,05,21,04,07,10.20
2006,05,21,04,08,10.20
2006,05,21,04,09,10.20
2006,05,21,04,10,10.20
2006,05,21,04,11,10.20
2006,05,21,04,12,10.20
2006,05,21,04,13,10.10
2006,05,21,04,14,10.10
2006,05,21,04,15,10.10
2006,05,21,04,16,10.10
2006,05,21,04,17,10.10
2006,05,21,04,18,10.10
2006,05,21,04,19,10.10
2006,05,21,04,20,10.10
2006,05,21,04,21,10.10
2006,05,21,04,22,10.10
2006,05,21,04,23,10.10
2006,05,21,04,24,10.10
2006,05,21,04,25,10.10
2006,05,21,04,26,10.10
2006,05,21,04,27,10.10
2006,05,21,04,28,10.20
2006,05,21,04,29,10.20
2006,05,21,04,30,10.20
2006,05,21,04,31,10.20
2006,05,21,04,32,10.20
2006,05,21,04,33,10.20
2006,05,21,04,34,10.30
2006,05,21,04,35,10.30
2006,05,21,04,36,10.30
2006,05,21,04,37,10.30
2006,05,21,04,38,10.40
2006,05,21,04,39,10.40
2006,05,21,04,40,10.40
2006,05,21,04,41,10.40
2006,05,21,04,42,10.40
2006,05,21,04,43,10.40
2006,05,21,04,44,10.40
2006,05,21,04,45,10.40
2006,05,21,04,46,10.40
2006,05,21,04,47,10.40
2006,05,21,04,48,10.40
2006,05,21,04,49,10.40
2006,05,21,04,50,10.40
2006,05,21,04,51,10.40
2006,05,21,04,52,10.40
2006,05,21,04,53,10.40
2006,05,21,04,54,10.40
2006,05,21,04,55,10.40
2006,05,21,04,56,10.40
2006,05,21,04,57,10.40
2006,05,21,04,58,10.40
2006,05,21,04,59,10.40
2006,05,21,05,00,10.40
2006,05,21,05,01,10.40
2006,05,21,05,02,10.40
2006,05,21,05,03,10.40
2006,05,21,05,04,10.40
2006,05,21,05,05,10.40
2006,05,21,05,06,10.40
2006,05,21,05,07,10.40
2006,05,21,05,08,10.40
2006,05,21,05,09,10.50
2006,05,21,05,10,10.60
2006,05,21,05,11,10.60
2006,05,21,05,12,10.60
2006,05,21,05,13,10.60
2006,05,21,05,14,10.60
2006,05,21,05,15,10.60
2006,05,21,05,16,10.60
2006,05,21,05,17,10.60
2006,05,21,05,18,10.60
2006,05,21,05,19,10.60
2006,05,21,05,20,10.60
2006,05,21,05,21,10.60
2006,05,21,05,22,10.60
2006,05,21,05,23,10.60
2006,05,21,05,24,10.60
2006,05,21,05,25,10.60
2006,05,21,05,26,10.60
2006,05,21,05,27,10.60
2006,05,21,05,28,10.60
2006,05,21,05,29,10.60
2006,05,21,05,30,10.60
2006,05,21,05,31,10.60
2006,05,21,05,32,10.60
2006,05,21,05,33,10.60
2006,05,21,05,34,10.60
2006,05,21,05,35,10.60
2006,05,21,05,36,10.60
2006,05,21,05,37,10.60
2006,05,21,05,38,10.60
2006,05,21,05,39,10.60
2006,05,21,05,40,10.60
2006,05,21,05,41,10.60
2006,05,21,05,42,10.60
2006,05,21,05,43,10.60
2006,05,21,05,44,10.60
2006,05,21,05,45,10.60
2006,05,21,05,46,10.60
2006,05,21,05,47,10.60
2006,05,21,05,48,10.60
2006,05,21,05,49,10.60
2006,05,21,05,50,10.60
2006,05,21,05,51,10.60
2006,05,21,05,52,10.60
2006,05,21,05,53,10.60
2006,05,21,05,54,10.60
2006,05,21,05,55,10.50
2006,05,21,05,56,10.40
2006,05,21,05,57,10.40
2006,05,21,05,58,10.40
2006,05,21,05,59,10.40
2006,05,21,06,00,10.40
2006,05,21,06,01,10.40
2006,05,21,06,02,10.40
2006,05,21,06,03,10.40
2006,05,21,06,04,10.40
2006,05,21,06,05,10.50
2006,05,21,06,06,10.60
2006,05,21,06,07,10.60
2006,05,21,06,08,10.60
2006,05,21,06,09,10.60
2006,05,21,06,10,10.60
2006,05,21,06,11,10.60
2006,05,21,06,12,10.60
2006,05,21,06,13,10.60
2006,05,21,06,14,10.60
2006,05,21,06,15,10.60
2006,05,21,06,16,10.60
2006,05,21,06,17,10.60
2006,05,21,06,18,10.60
2006,05,21,06,19,10.60
2006,05,21,06,20,10.60
2006,05,21,06,21,10.60
2006,05,21,06,22,10.60
2006,05,21,06,23,10.60
2006,05,21,06,24,10.60
2006,05,21,06,25,10.50
2006,05,21,06,26,10.50
2006,05,21,06,27,10.50
2006,05,21,06,28,10.50
2006,05,21,06,29,10.40
2006,05,21,06,30,10.50
2006,05,21,06,31,10.60
2006,05,21,06,32,10.60
2006,05,21,06,33,10.60
2006,05,21,06,34,10.60
2006,05,21,06,35,10.60
2006,05,21,06,36,10.60
2006,05,21,06,37,10.60
2006,05,21,06,38,10.60
2006,05,21,06,39,10.60
2006,05,21,06,40,10.60
2006,05,21,06,41,10.60
2006,05,21,06,42,10.60
2006,05,21,06,43,10.60
2006,05,21,06,44,10.60
2006,05,21,06,45,10.60
2006,05,21,06,46,10.60
2006,05,21,06,47,10.60
2006,05,21,06,48,10.70
2006,05,21,06,49,10.70
2006,05,21,06,50,10.80
2006,05,21,06,51,10.80
2006,05,21,06,52,10.80
2006,05,21,06,53,10.80
2006,05,21,06,54,10.90
2006,05,21,06,55,10.90
2006,05,21,06,56,10.90
2006,05,21,06,57,10.90
2006,05,21,06,58,10.90
2006,05,21,06,59,11.10
2006,05,21,07,00,11.10
2006,05,21,07,01,11.10
2006,05,21,07,02,11.10
2006,05,21,07,03,11.10
2006,05,21,07,04,11.20
2006,05,21,07,05,11.20
2006,05,21,07,06,11.30
2006,05,21,07,07,11.40
2006,05,21,07,08,11.60
2006,05,21,07,09,11.60
2006,05,21,07,10,11.60
2006,05,21,07,11,11.60
2006,05,21,07,12,11.70
2006,05,21,07,13,11.70
2006,05,21,07,14,11.80
2006,05,21,07,15,11.80
2006,05,21,07,16,11.90
2006,05,21,07,17,12.00
2006,05,21,07,18,12.10
2006,05,21,07,19,12.30
2006,05,21,07,20,12.30
2006,05,21,07,21,12.40
2006,05,21,07,22,12.50
2006,05,21,07,23,12.50
2006,05,21,07,24,12.50
2006,05,21,07,25,12.50
2006,05,21,07,26,12.50
2006,05,21,07,27,12.50
2006,05,21,07,28,12.60
2006,05,21,07,29,12.50
2006,05,21,07,30,12.40
2006,05,21,07,31,12.30
2006,05,21,07,32,12.30
2006,05,21,07,33,12.30
2006,05,21,07,34,12.40
2006,05,21,07,35,12.50
2006,05,21,07,36,12.60
2006,05,21,07,37,12.60
2006,05,21,07,38,12.70
2006,05,21,07,39,12.70
2006,05,21,07,40,12.80
2006,05,21,07,41,12.80
2006,05,21,07,42,12.90
2006,05,21,07,43,13.00
2006,05,21,07,44,13.00
2006,05,21,07,45,13.00
2006,05,21,07,46,12.90
2006,05,21,07,47,12.90
2006,05,21,07,48,12.80
2006,05,21,07,49,12.80
2006,05,21,07,50,12.80
2006,05,21,07,51,12.80
2006,05,21,07,52,12.80
2006,05,21,07,53,12.80
2006,05,21,07,54,12.70
2006,05,21,07,55,12.80
2006,05,21,07,56,12.80
2006,05,21,07,57,12.90
2006,05,21,07,58,13.00
2006,05,21,07,59,13.00
2006,05,21,08,00,13.00
2006,05,21,08,01,13.00
2006,05,21,08,02,13.10
2006,05,21,08,03,13.10
2006,05,21,08,04,13.20
2006,05,21,08,05,13.30
2006,05,21,08,06,13.20
2006,05,21,08,07,13.10
2006,05,21,08,08,13.10
2006,05,21,08,09,13.10
2006,05,21,08,10,13.10
2006,05,21,08,11,13.00
2006,05,21,08,12,12.90
2006,05,21,08,13,12.80
2006,05,21,08,14,12.80
2006,05,21,08,15,12.70
2006,05,21,08,16,12.70
2006,05,21,08,17,12.70
2006,05,21,08,18,12.80
2006,05,21,08,19,12.80
2006,05,21,08,20,12.80
2006,05,21,08,21,12.90
2006,05,21,08,22,13.00
2006,05,21,08,23,13.10
2006,05,21,08,24,13.10
2006,05,21,08,25,13.10
2006,05,21,08,26,13.10
2006,05,21,08,27,13.00
2006,05,21,08,28,13.10
2006,05,21,08,29,13.10
2006,05,21,08,30,13.20
2006,05,21,08,31,13.20
2006,05,21,08,32,13.20
2006,05,21,08,33,13.20
2006,05,21,08,34,13.20
2006,05,21,08,35,13.10
2006,05,21,08,36,13.10
2006,05,21,08,37,13.20
2006,05,21,08,38,13.20
2006,05,21,08,39,13.10
2006,05,21,08,40,13.10
2006,05,21,08,41,13.10
2006,05,21,08,42,13.10
2006,05,21,08,43,13.20
2006,05,21,08,44,13.10
2006,05,21,08,45,13.20
2006,05,21,08,46,13.30
2006,05,21,08,47,13.30
2006,05,21,08,48,13.20
2006,05,21,08,49,13.20
2006,05,21,08,50,13.10
2006,05,21,08,51,13.00
2006,05,21,08,52,13.00
2006,05,21,08,53,12.90
2006,05,21,08,54,12.90
2006,05,21,08,55,13.00
2006,05,21,08,56,13.00
2006,05,21,08,57,13.00
2006,05,21,08,58,13.00
2006,05,21,08,59,12.90
2006,05,21,09,00,12.90
2006,05,21,09,01,12.90
2006,05,21,09,02,12.90
2006,05,21,09,03,12.90
2006,05,21,09,04,12.80
2006,05,21,09,05,12.90
2006,05,21,09,06,12.90
2006,05,21,09,07,12.90
2006,05,21,09,08,12.90
2006,05,21,09,09,12.90
2006,05,21,09,10,12.90
2006,05,21,09,11,13.00
2006,05,21,09,12,12.90
2006,05,21,09,13,12.90
2006,05,21,09,14,12.90
2006,05,21,09,15,12.90
2006,05,21,09,16,12.90
2006,05,21,09,17,12.80
2006,05,21,09,18,12.80
2006,05,21,09,19,12.80
2006,05,21,09,20,12.80
2006,05,21,09,21,12.90
2006,05,21,09,22,12.90
2006,05,21,09,23,12.90
2006,05,21,09,24,12.80
2006,05,21,09,25,12.80
2006,05,21,09,26,12.80
2006,05,21,09,27,12.80
2006,05,21,09,28,12.70
2006,05,21,09,29,12.70
2006,05,21,09,30,12.70
2006,05,21,09,31,12.70
2006,05,21,09,32,12.70
2006,05,21,09,33,12.70
2006,05,21,09,34,12.70
2006,05,21,09,35,12.70
2006,05,21,09,36,12.70
2006,05,21,09,37,12.60
2006,05,21,09,38,12.60
2006,05,21,09,39,12.50
2006,05,21,09,40,12.50
2006,05,21,09,41,12.50
2006,05,21,09,42,12.50
2006,05,21,09,43,12.60
2006,05,21,09,44,12.60
2006,05,21,09,45,12.60
2006,05,21,09,46,12.50
2006,05,21,09,47,12.60
2006,05,21,09,48,12.70
2006,05,21,09,49,12.80
2006,05,21,09,50,12.80
2006,05,21,09,51,12.70
2006,05,21,09,52,12.60
2006,05,21,09,53,12.60
2006,05,21,09,54,12.60
2006,05,21,09,55,12.70
2006,05,21,09,56,12.70
2006,05,21,09,57,12.80
2006,05,21,09,58,12.80
2006,05,21,09,59,12.80
2006,05,21,10,00,12.80
2006,05,21,10,01,12.80
2006,05,21,10,02,12.70
2006,05,21,10,03,12.70
2006,05,21,10,04,12.80
2006,05,21,10,05,12.80
2006,05,21,10,06,12.80
2006,05,21,10,07,12.80
2006,05,21,10,08,12.90
2006,05,21,10,09,12.90
2006,05,21,10,10,12.90
2006,05,21,10,11,13.00
2006,05,21,10,12,13.00
2006,05,21,10,13,13.10
2006,05,21,10,14,13.10
2006,05,21,10,15,13.10
2006,05,21,10,16,13.20
2006,05,21,10,17,13.10
2006,05,21,10,18,13.00
2006,05,21,10,19,13.00
2006,05,21,10,20,12.90
2006,05,21,10,21,12.90
2006,05,21,10,22,13.00
2006,05,21,10,23,13.00
2006,05,21,10,24,13.00
2006,05,21,10,25,13.00
2006,05,21,10,26,13.00
2006,05,21,10,27,13.10
2006,05,21,10,28,13.10
2006,05,21,10,29,13.20
2006,05,21,10,30,13.30
2006,05,21,10,31,13.30
2006,05,21,10,32,13.40
2006,05,21,10,33,13.30
2006,05,21,10,34,13.30
2006,05,21,10,35,13.30
2006,05,21,10,36,13.30
2006,05,21,10,37,13.30
2006,05,21,10,38,13.40
2006,05,21,10,39,13.50
2006,05,21,10,40,13.60
2006,05,21,10,41,13.60
2006,05,21,10,42,13.60
2006,05,21,10,43,13.50
2006,05,21,10,44,13.50
2006,05,21,10,45,13.40
2006,05,21,10,46,13.50
2006,05,21,10,47,13.50
2006,05,21,10,48,13.50
2006,05,21,10,49,13.60
2006,05,21,10,50,13.70
2006,05,21,10,51,13.60
2006,05,21,10,52,13.60
2006,05,21,10,53,13.60
2006,05,21,10,54,13.60
2006,05,21,10,55,13.70
2006,05,21,10,56,13.80
2006,05,21,10,57,13.80
2006,05,21,10,58,13.80
2006,05,21,10,59,14.00
2006,05,21,11,00,14.20
2006,05,21,11,01,14.30
2006,05,21,11,02,14.20
2006,05,21,11,03,14.20
2006,05,21,11,04,14.10
2006,05,21,11,05,14.10
2006,05,21,11,06,14.10
2006,05,21,11,07,14.20
2006,05,21,11,08,14.20
2006,05,21,11,09,14.20
2006,05,21,11,10,14.20
2006,05,21,11,11,14.20
2006,05,21,11,12,14.10
2006,05,21,11,13,14.20
2006,05,21,11,14,14.20
2006,05,21,11,15,14.20
2006,05,21,11,16,14.20
2006,05,21,11,17,14.10
2006,05,21,11,18,14.00
2006,05,21,11,19,14.00
2006,05,21,11,20,13.90
2006,05,21,11,21,14.00
2006,05,21,11,22,14.10
2006,05,21,11,23,14.20
2006,05,21,11,24,14.10
2006,05,21,11,25,14.10
2006,05,21,11,26,14.00
2006,05,21,11,27,13.90
2006,05,21,11,28,13.90
2006,05,21,11,29,13.90
2006,05,21,11,30,14.00
2006,05,21,11,31,14.00
2006,05,21,11,32,14.20
2006,05,21,11,33,14.20
2006,05,21,11,34,14.30
2006,05,21,11,35,14.50
2006,05,21,11,36,14.50
2006,05,21,11,37,14.40
2006,05,21,11,38,14.50
2006,05,21,11,39,14.60
2006,05,21,11,40,14.60
2006,05,21,11,41,14.70
2006,05,21,11,42,14.80
2006,05,21,11,43,14.80
2006,05,21,11,44,14.80
2006,05,21,11,45,14.80
2006,05,21,11,46,14.90
2006,05,21,11,47,15.00
2006,05,21,11,48,15.10
2006,05,21,11,49,15.20
2006,05,21,11,50,15.30
2006,05,21,11,51,15.30
2006,05,21,11,52,15.30
2006,05,21,11,53,15.40
2006,05,21,11,54,15.50
2006,05,21,11,55,15.50
2006,05,21,11,56,15.50
2006,05,21,11,57,15.50
2006,05,21,11,58,15.30
2006,05,21,11,59,15.30
2006,05,21,12,00,15.20
2006,05,21,12,01,15.10
2006,05,21,12,02,15.10
2006,05,21,12,03,15.20
2006,05,21,12,04,15.20
2006,05,21,12,05,15.00
2006,05,21,12,06,14.90
2006,05,21,12,07,14.80
2006,05,21,12,08,14.80
2006,05,21,12,09,14.80
2006,05,21,12,10,14.80
2006,05,21,12,11,14.70
2006,05,21,12,12,14.60
2006,05,21,12,13,14.60
2006,05,21,12,14,14.70
2006,05,21,12,15,14.80
2006,05,21,12,16,14.90
2006,05,21,12,17,14.90
2006,05,21,12,18,15.00
2006,05,21,12,19,15.00
2006,05,21,12,20,14.90
2006,05,21,12,21,14.90
2006,05,21,12,22,14.70
2006,05,21,12,23,14.70
2006,05,21,12,24,14.70
2006,05,21,12,25,14.70
2006,05,21,12,26,14.70
2006,05,21,12,27,14.80
2006,05,21,12,28,14.80
2006,05,21,12,29,14.90
2006,05,21,12,30,15.00
2006,05,21,12,31,15.10
2006,05,21,12,32,15.20
2006,05,21,12,33,15.20
2006,05,21,12,34,15.10
2006,05,21,12,35,15.10
2006,05,21,12,36,15.20
2006,05,21,12,37,15.30
2006,05,21,12,38,15.30
2006,05,21,12,39,15.20
2006,05,21,12,40,15.10
2006,05,21,12,41,15.10
2006,05,21,12,42,15.10
2006,05,21,12,43,15.00
2006,05,21,12,44,14.90
2006,05,21,12,45,14.90
2006,05,21,12,46,14.80
2006,05,21,12,47,14.90
2006,05,21,12,48,15.00
2006,05,21,12,49,15.00
2006,05,21,12,50,15.10
2006,05,21,12,51,15.10
2006,05,21,12,52,15.10
2006,05,21,12,53,15.10
2006,05,21,12,54,15.10
2006,05,21,12,55,15.10
2006,05,21,12,56,15.10
2006,05,21,12,57,15.10
2006,05,21,12,58,15.10
2006,05,21,12,59,15.10
2006,05,21,13,00,15.10
2006,05,21,13,01,15.00
2006,05,21,13,02,15.00
2006,05,21,13,03,14.90
2006,05,21,13,04,14.80
2006,05,21,13,05,14.80
2006,05,21,13,06,14.90
2006,05,21,13,07,15.10
2006,05,21,13,08,15.10
2006,05,21,13,09,15.10
2006,05,21,13,10,15.20
2006,05,21,13,11,15.30
2006,05,21,13,12,15.20
2006,05,21,13,13,15.10
2006,05,21,13,14,14.90
2006,05,21,13,15,14.90
2006,05,21,13,16,14.90
2006,05,21,13,17,14.90
2006,05,21,13,18,15.00
2006,05,21,13,19,15.10
2006,05,21,13,20,15.30
2006,05,21,13,21,15.40
2006,05,21,13,22,15.50
2006,05,21,13,23,15.50
2006,05,21,13,24,15.50
2006,05,21,13,25,15.40
2006,05,21,13,26,15.40
2006,05,21,13,27,15.30
2006,05,21,13,28,15.40
2006,05,21,13,29,15.40
2006,05,21,13,30,15.50
2006,05,21,13,31,15.60
2006,05,21,13,32,15.60
2006,05,21,13,33,15.50
2006,05,21,13,34,15.40
2006,05,21,13,35,15.30
2006,05,21,13,36,15.40
2006,05,21,13,37,15.40
2006,05,21,13,38,15.30
2006,05,21,13,39,15.40
2006,05,21,13,40,15.50
2006,05,21,13,41,15.60
2006,05,21,13,42,15.70
2006,05,21,13,43,15.70
2006,05,21,13,44,15.90
2006,05,21,13,45,16.10
2006,05,21,13,46,16.20
2006,05,21,13,47,16.20
2006,05,21,13,48,16.30
2006,05,21,13,49,16.30
2006,05,21,13,50,16.30
2006,05,21,13,51,16.40
2006,05,21,13,52,16.40
2006,05,21,13,53,16.40
2006,05,21,13,54,16.40
2006,05,21,13,55,16.30
2006,05,21,13,56,16.10
2006,05,21,13,57,16.10
2006,05,21,13,58,16.00
2006,05,21,13,59,15.80
2006,05,21,14,00,15.70
2006,05,21,14,01,15.60
2006,05,21,14,02,15.60
2006,05,21,14,03,15.70
2006,05,21,14,04,15.70
2006,05,21,14,05,15.60
2006,05,21,14,06,15.60
2006,05,21,14,07,15.50
2006,05,21,14,08,15.50
2006,05,21,14,09,15.50
2006,05,21,14,10,15.50
2006,05,21,14,11,15.60
2006,05,21,14,12,15.60
2006,05,21,14,13,15.70
2006,05,21,14,14,15.90
2006,05,21,14,15,15.90
2006,05,21,14,16,15.90
2006,05,21,14,17,15.90
2006,05,21,14,18,15.90
2006,05,21,14,19,15.90
2006,05,21,14,20,16.00
2006,05,21,14,21,16.10
2006,05,21,14,22,16.10
2006,05,21,14,23,16.20
2006,05,21,14,24,16.30
2006,05,21,14,25,16.30
2006,05,21,14,26,16.40
2006,05,21,14,27,16.40
2006,05,21,14,28,16.40
2006,05,21,14,29,16.40
2006,05,21,14,30,16.40
2006,05,21,14,31,16.50
2006,05,21,14,32,16.60
2006,05,21,14,33,16.50
2006,05,21,14,34,16.40
2006,05,21,14,35,16.30
2006,05,21,14,36,16.30
2006,05,21,14,37,16.30
2006,05,21,14,38,16.20
2006,05,21,14,39,16.10
2006,05,21,14,40,16.20
2006,05,21,14,41,16.30
2006,05,21,14,42,16.30
2006,05,21,14,43,16.40
2006,05,21,14,44,16.40
2006,05,21,14,45,16.50
2006,05,21,14,46,16.60
2006,05,21,14,47,16.60
2006,05,21,14,48,16.60
2006,05,21,14,49,16.60
2006,05,21,14,50,16.50
2006,05,21,14,51,16.60
2006,05,21,14,52,16.60
2006,05,21,14,53,16.70
2006,05,21,14,54,16.70
2006,05,21,14,55,16.70
2006,05,21,14,56,16.70
2006,05,21,14,57,16.60
2006,05,21,14,58,16.50
2006,05,21,14,59,16.40
2006,05,21,15,00,16.40
2006,05,21,15,01,16.40
2006,05,21,15,02,16.40
2006,05,21,15,03,16.40
2006,05,21,15,04,16.40
2006,05,21,15,05,16.50
2006,05,21,15,06,16.60
2006,05,21,15,07,16.60
2006,05,21,15,08,16.60
2006,05,21,15,09,16.60
2006,05,21,15,10,16.70
2006,05,21,15,11,16.70
2006,05,21,15,12,16.70
2006,05,21,15,13,16.70
2006,05,21,15,14,16.70
2006,05,21,15,15,16.70
2006,05,21,15,16,16.70
2006,05,21,15,17,16.70
2006,05,21,15,18,16.70
2006,05,21,15,19,16.70
2006,05,21,15,20,16.70
2006,05,21,15,21,16.70
2006,05,21,15,22,16.70
2006,05,21,15,23,16.60
2006,05,21,15,24,16.60
2006,05,21,15,25,16.60
2006,05,21,15,26,16.60
2006,05,21,15,27,16.50
2006,05,21,15,28,16.40
2006,05,21,15,29,16.40
2006,05,21,15,30,16.30
2006,05,21,15,31,16.30
2006,05,21,15,32,16.20
2006,05,21,15,33,16.20
2006,05,21,15,34,16.20
2006,05,21,15,35,16.20
2006,05,21,15,36,16.20
2006,05,21,15,37,16.20
2006,05,21,15,38,16.30
2006,05,21,15,39,16.30
2006,05,21,15,40,16.30
2006,05,21,15,41,16.30
2006,05,21,15,42,16.20
2006,05,21,15,43,16.10
2006,05,21,15,44,16.00
2006,05,21,15,45,15.90
2006,05,21,15,46,15.90
2006,05,21,15,47,15.80
2006,05,21,15,48,15.80
2006,05,21,15,49,15.70
2006,05,21,15,50,15.60
2006,05,21,15,51,15.50
2006,05,21,15,52,15.40
2006,05,21,15,53,15.30
2006,05,21,15,54,15.20
2006,05,21,15,55,15.10
2006,05,21,15,56,15.00
2006,05,21,15,57,14.90
2006,05,21,15,58,14.70
2006,05,21,15,59,14.60
2006,05,21,16,00,14.40
2006,05,21,16,01,14.30
2006,05,21,16,02,14.20
2006,05,21,16,03,14.10
2006,05,21,16,04,14.00
2006,05,21,16,05,13.90
2006,05,21,16,06,13.80
2006,05,21,16,07,13.70
2006,05,21,16,08,13.70
2006,05,21,16,09,13.60
2006,05,21,16,10,13.50
2006,05,21,16,11,13.40
2006,05,21,16,12,13.30
2006,05,21,16,13,13.30
2006,05,21,16,14,13.30
2006,05,21,16,15,13.20
2006,05,21,16,16,13.20
2006,05,21,16,17,13.10
2006,05,21,16,18,13.10
2006,05,21,16,19,13.10
2006,05,21,16,20,13.10
2006,05,21,16,21,13.00
2006,05,21,16,22,13.00
2006,05,21,16,23,13.00
2006,05,21,16,24,13.00
2006,05,21,16,25,12.90
2006,05,21,16,26,12.90
2006,05,21,16,27,13.00
2006,05,21,16,28,13.00
2006,05,21,16,29,13.10
2006,05,21,16,30,13.00
2006,05,21,16,31,13.00
2006,05,21,16,32,13.00
2006,05,21,16,33,13.00
2006,05,21,16,34,12.90
2006,05,21,16,35,12.90
2006,05,21,16,36,12.90
2006,05,21,16,37,12.90
2006,05,21,16,38,12.90
2006,05,21,16,39,12.80
2006,05,21,16,40,12.80
2006,05,21,16,41,12.80
2006,05,21,16,42,12.80
2006,05,21,16,43,12.80
2006,05,21,16,44,12.80
2006,05,21,16,45,12.80
2006,05,21,16,46,12.80
2006,05,21,16,47,12.80
2006,05,21,16,48,12.80
2006,05,21,16,49,12.80
2006,05,21,16,50,12.90
2006,05,21,16,51,12.90
2006,05,21,16,52,12.90
2006,05,21,16,53,12.90
2006,05,21,16,54,12.90
2006,05,21,16,55,12.80
2006,05,21,16,56,12.80
2006,05,21,16,57,12.80
2006,05,21,16,58,12.80
2006,05,21,16,59,12.80
2006,05,21,17,00,12.80
2006,05,21,17,01,12.80
2006,05,21,17,02,12.80
2006,05,21,17,03,12.80
2006,05,21,17,04,12.80
2006,05,21,17,05,12.70
2006,05,21,17,06,12.70
2006,05,21,17,07,12.70
2006,05,21,17,08,12.70
2006,05,21,17,09,12.70
2006,05,21,17,10,12.70
2006,05,21,17,11,12.70
2006,05,21,17,12,12.70
2006,05,21,17,13,12.70
2006,05,21,17,14,12.70
2006,05,21,17,15,12.70
2006,05,21,17,16,12.70
2006,05,21,17,17,12.60
2006,05,21,17,18,12.60
2006,05,21,17,19,12.60
2006,05,21,17,20,12.70
2006,05,21,17,21,12.70
2006,05,21,17,22,12.60
2006,05,21,17,23,12.60
2006,05,21,17,24,12.60